EHI
0 0 0 0 0 0 0 0 0 0 0 0 0 0 0 0 0 0 0 0 0 0 0 0 0 0 0 0 0 0 0 0 0 0 0 0 0 0 0 0 0 0 0
0 0 0 0 0 0 0 0 0 0 0 0 0 0 0 0 0 0 0 0 0 0 0 0 0 0 0 0 0 0 0 0 0 0 0 0 0 0 0 0 0 0 0
0 0 0 0 0 0 0 0 0 0 0 0 0 0 0 0 0 0 0 0 0 0 0 0 0 0 0 0 0 0 0 0 0 0 0 0 0 0 0 0 0 0 0
0 0 0 0 0 0 0 0 0 0 0 0 0 0 0 0 0 0 0 0 0 0 0 0 0 0 0 0 0 0 0 0 0 0 0 0 0 0 0 0 0 0 0
0 0 0 0 0 0 0 0 0 0 0 0 0 0 0 0 0 0 0 0 0 0 0 0 0 0 0 0 0 0 0 0 0 0 0 0 0 0 0 0 0 0 0
0 0 0 0 0 0 0 0 0 0 0 0 0 0 0 0 0 0 0 0 0 0 0 0 0 0 0 0 0 0 0 0 0 0 0 0 0 0 0 0 0 0 0
0 0 0 0 0 0 0 0 0 0 0 0 0 0 0 0 0 0 0 0 0 0 0 0 0 0 0 0 0 0 0 0 0 0 0 0 0 0 0 0 0 0 0
0 0 0 0 0 0 0 0 0 0 0 0 0 0 0 0 0 0 0 0 0 0 0 0 0 0 0 0 0 0 0 0 0 0 0 0 0 0 0 0 0 0 0
0 0 0 0 0 0 0 0 0 0 0 0 0 0 0 0 0 0 0 0 0 0 0 0 0 0 0 0 0 0 0 0 0 0 0 0 0 0 0 0 0 0 0
0 0 0 0 0 0 0 0 0 0 0 0 0 0 0 0 0 0 0 0 0 0 0 0 0 0 0 0 0 0 0 0 0 0 0 0 0 0 0 0 0 0 0
0 0 0 0 0 0 0 0 0 0 0 0 0 0 0 0 0 0 0 0 0 0 0 0 0 0 0 0 0 0 0 0 0 0 0 0 0 0 0 0 0 0 0
0 0 0 0 0 0 0 0 0 0 0 0 0 0 0 0 0 0 0 0 0 0 0 0 0 0 0 0 0 0 0 0 0 0 0 0 0 0 0 0 0 0 0
0 0 0 0 0 0 0 0 0 0 0 0 0 0 0 0 0 0 0 0 0 0 0 0 0 0 0 0 0 0 0 0 0 0 0 0 0 0 0 0 0 0 0
0 0 0 0 0 0 0 0 0 0 0 0 0 0 0 0 0 0 0 0 0 0 0 0 0 0 0 0 0 0 0 0 0 0 0 0 0 0 0 0 0 0 0
0 0 0 0 0 0 0 0 0 0 0 0 0 0 0 0 0 0 0 0 0 0 0 0 0 0 0 0 0 0 0 0 0 0 0 0 0 0 0 0 0 0 0
0 0 0 0 0 0 0 0 0 0 0 0 0 0 0 0 0 0 0 0 0 0 0 0 0 0 0 0 0 0 0 0 0 0 0 0 0 0 0 0 0 0 0
0 0 0 0 0 0 0 0 0 0 0 0 0 0 0 0 0 0 0 0 0 0 0 0 0 0 0 0 0 0 0 0 0 0 0 0 0 0 0 0 0 0 0
0 0 0 0 0 0 0 0 0 0 0 0 0 0 0 0 0 0 0 0 0 0 0 0 0 0 0 0 0 0 0 0 0 0 0 0 0 0 0 0 0 0 0
0 0 0 0 0 0 0 0 0 0 0 0 0 0 0 0 0 0 0 0 0 0 0 0 0 0 0 0 0 0 0 0 0 0 0 0 0 0 0 0 0 0 0
0 0 0 0 0 0 0 0 0 0 0 0 0 0 0 0 0 0 0 0 0 0 0 0 0 0 0 0 0 0 0 0 0 0 0 0 0 0 0 0 0 0 0
0 0 0 0 0 0 0 0 0 0 0 0 0 0 0 0 0 0 0 0 0 0 0 0 0 0 0 0 0 0 0 0 0 0 0 0 0 0 0 0 0 0 0
0 0 0 0 0 0 0 0 0 0 0 0 0 0 0 0 0 0 0 0 0 0 0 0 0 0 0 0 0 0 0 0 0 0 0 0 0 0 0 0 0 0 0
0 0 0 0 0 0 0 0 0 0 0 0 0 0 0 0 0 0 0 0 0 0 0 0 0 0 0 0 0 0 0 0 0 0 0 0 0 0 0 0 0 0 0
0 0 0 0 0 0 0 0 0 0 0 0 0 0 0 0 0 0 0 0 0 0 0 0 0 0 0 0 0 0 0 0 0 0 0 0 0 0 0 0 0 0 0
0 0 0 0 0 0 0 0 0 0 0 0 0 0 0 0 0 0 0 0 0 0 0 0 0 0 0 0 0 0 0 0 0 0 0 0 0 0 0 0 0 0 0
0 0 0 0 0 0 0 0 0 0 0 0 0 0 0 0 0 0 0 0 0 0 0 0 0 0 0 0 0 0 0 0 0 0 0 0 0 0 0 0 0 0 0
Wind_Speed
4 1 0 1 2 2 3 2 3 2 2 2 2 2 3 2 2 3 4 5 5 5 6 6 5 6 6 8 7 6 6 6 3 2 4 4 5 6 6 6 6 7 8
3 2 1 1 3 3 3 3 3 2 2 2 1 1 1 1 1 1 2 2 3 4 4 6 5 5 6 7 7 6 4 4 4 4 2 3 3 5 6 5 6 6 4
8 5 3 2 3 3 3 3 3 3 2 2 1 1 1 1 1 1 1 1 2 2 3 4 5 5 5 6 7 7 7 6 4 5 5 4 4 3 2 3 4 4 4
7 6 5 4 4 3 3 4 4 4 3 3 2 2 1 1 1 1 2 3 2 2 2 3 3 4 4 5 6 6 6 6 5 4 5 6 3 3 3 2 2 3 4
8 8 7 5 4 4 4 4 5 5 5 4 3 2 1 0 1 1 2 3 3 3 3 3 2 3 3 4 4 4 5 5 5 4 4 5 4 4 4 5 3 2 2
8 7 6 5 4 4 4 4 6 6 5 5 4 3 2 1 1 2 3 3 2 3 4 4 3 3 3 3 4 4 4 4 5 4 4 4 4 4 5 6 4 3 2
9 9 9 7 6 5 5 5 6 5 5 5 4 4 3 2 1 1 2 2 2 3 5 4 4 3 3 3 3 3 3 3 4 4 3 4 4 3 3 4 4 3 2
9 10 9 8 7 6 5 5 5 4 4 4 4 4 3 2 2 2 2 2 2 2 4 4 4 4 4 4 3 2 2 2 2 2 2 1 2 2 2 3 2 3 2
8 8 7 7 6 6 5 5 5 4 4 3 4 4 4 4 3 3 3 2 3 3 4 4 5 5 5 5 3 2 3 2 2 2 2 1 2 1 1 1 2 2 3
7 7 6 6 5 5 4 5 5 5 3 3 3 3 4 4 3 3 4 4 4 4 4 5 5 5 6 5 4 4 4 5 5 4 4 4 3 3 3 2 1 0 2
8 7 6 5 5 5 5 5 4 4 4 3 4 4 3 4 4 4 4 4 4 5 5 5 5 6 6 6 6 6 6 6 6 6 6 6 5 4 4 3 3 3 1
6 6 6 6 5 5 4 4 4 4 3 3 4 4 3 4 4 4 4 4 5 5 5 5 6 6 7 7 7 7 7 7 7 7 7 6 5 6 5 4 4 3 2
6 6 6 6 6 5 5 4 4 4 3 4 4 4 4 4 4 4 4 4 5 5 5 6 6 6 7 7 7 7 7 8 7 7 7 6 6 6 5 5 4 3 3
7 7 6 6 6 5 5 5 4 4 4 4 4 4 3 3 3 4 4 4 4 5 5 6 6 6 6 7 7 7 7 8 8 7 7 6 6 5 5 5 4 4 4
7 8 8 7 6 6 5 5 4 4 4 4 4 4 3 3 3 4 4 5 5 5 5 5 6 5 5 6 6 6 7 7 7 7 7 7 8 9 6 5 4 4 3
9 8 8 8 8 8 7 6 5 5 4 5 4 4 4 4 4 4 4 5 5 5 5 6 6 6 6 10 11 8 6 6 6 6 6 6 8 11 12 12 10 7 4
10 9 10 9 9 8 8 7 6 5 5 5 5 4 4 4 4 4 5 5 5 5 5 5 5 6 8 11 12 12 7 6 5 5 5 4 6 7 5 8 11 10 11
8 8 8 8 7 7 7 6 6 6 6 5 5 5 5 5 4 4 5 4 4 4 4 4 5 4 6 10 10 11 6 5 5 4 4 4 4 3 4 4 5 5 5
6 6 6 7 7 8 8 8 7 6 6 6 5 5 5 5 5 5 4 3 4 4 3 3 4 4 4 7 8 7 3 3 4 3 3 3 2 5 6 4 3 4 4
4 5 6 6 8 8 8 8 7 7 6 6 5 5 5 5 5 5 4 3 3 3 3 2 2 2 2 3 5 6 2 2 2 2 3 5 4 5 4 3 1 2 2
4 6 7 7 7 8 8 8 7 7 6 6 5 5 5 5 5 4 3 4 3 3 2 1 1 1 2 3 2 4 2 1 1 1 1 3 6 5 5 2 1 2 0
5 6 6 5 6 8 8 7 7 6 6 6 6 5 5 5 4 5 4 3 3 3 2 1 2 2 2 3 3 1 1 2 2 1 1 3 6 5 5 3 3 3 3
5 4 5 5 5 7 8 8 6 7 7 7 6 5 5 4 4 5 5 3 3 3 2 2 3 2 2 2 4 3 2 1 1 2 3 4 5 4 3 4 4 3 1
4 5 6 6 6 7 7 7 7 8 8 7 7 6 6 5 4 4 4 4 4 4 4 4 4 3 2 2 2 2 2 3 2 1 3 4 4 2 3 3 2 1 1
3 4 6 6 7 7 7 7 8 9 8 8 7 6 6 5 5 5 4 5 5 6 5 5 4 4 4 5 6 4 3 3 3 2 1 0 1 1 2 2 2 2 2
3 4 5 6 6 7 8 8 9 10 9 8 8 6 6 5 5 4 4 8 8 10 12 10 7 6 7 6 6 7 7 6 6 2 1 2 2 2 3 3 2 2 2
Wind_Direction
259 285 98 117 113 102 123 140 143 138 134 138 160 180 206 211 217 222 224 224 227 224 221 231 226 213 220 227 223 224 230 237 219 235 267 263 240 238 238 232 230 231 228
232 220 167 103 114 114 108 107 109 101 114 136 144 158 165 192 211 227 231 235 242 238 230 230 231 220 224 231 226 217 222 227 185 193 235 287 291 253 239 231 234 240 229
209 202 186 149 121 114 114 109 99 89 79 95 101 77 61 30 17 356 328 314 300 280 260 249 242 234 225 235 235 223 224 238 217 197 208 237 251 285 280 243 238 237 230
198 191 183 168 147 128 109 100 91 80 67 72 96 124 151 209 271 312 312 320 324 313 302 283 266 254 243 244 244 230 226 233 239 212 221 232 232 248 288 280 269 249 239
193 187 180 165 139 121 108 99 89 74 62 63 83 101 109 207 322 337 335 338 342 348 344 324 302 281 265 260 258 250 236 232 240 224 208 227 235 230 250 271 269 282 256
187 174 157 141 126 111 101 97 89 72 60 64 65 81 91 56 12 355 344 340 337 348 357 350 344 325 307 287 273 262 251 244 242 236 212 203 206 209 222 249 247 248 255
176 167 161 156 143 127 112 100 93 78 61 63 58 58 64 66 47 356 347 350 351 351 348 353 348 341 327 312 298 278 268 254 247 242 232 220 225 211 212 237 254 248 253
177 172 167 156 146 137 126 115 106 94 73 68 60 50 50 55 45 28 20 12 355 341 345 352 355 351 345 339 332 322 311 305 278 272 257 231 238 222 216 222 235 259 255
174 166 156 149 146 140 135 130 120 106 86 78 74 57 48 50 43 31 28 18 1 355 7 7 9 7 5 4 9 22 12 22 26 20 29 36 20 16 337 257 221 236 266
159 155 153 150 145 137 127 119 117 113 99 81 75 77 55 50 46 45 38 27 16 16 18 22 23 22 20 20 32 36 34 52 43 39 52 48 31 34 30 23 7 254 242
166 162 156 148 138 131 129 125 120 114 103 92 84 77 61 54 54 52 41 34 32 30 32 32 36 36 32 30 43 46 43 55 52 47 56 52 42 46 37 36 36 31 18
166 158 153 148 148 148 144 137 131 124 118 110 98 87 73 64 60 54 45 45 46 41 42 45 49 48 45 43 50 55 53 58 57 51 56 49 50 50 41 44 44 36 26
163 158 160 167 168 163 156 150 143 136 127 118 108 94 81 75 69 62 58 57 56 52 51 56 59 56 55 56 58 64 66 64 61 57 59 53 56 54 45 46 43 32 31
178 177 182 182 176 169 164 157 150 142 136 127 120 111 100 94 88 79 73 67 64 62 60 64 68 68 64 62 64 70 70 68 63 59 59 57 60 64 57 50 40 40 44
196 195 192 185 176 170 168 163 156 151 143 137 133 129 120 111 100 92 82 75 71 68 65 65 65 71 74 71 70 69 73 72 67 57 50 52 59 69 72 69 53 51 51
209 203 193 185 183 179 174 167 164 160 151 148 146 142 134 125 115 106 98 90 79 70 66 62 60 61 69 78 81 80 69 67 65 58 45 47 47 51 55 60 58 59 62
209 201 197 192 187 181 172 171 166 157 154 154 150 150 145 136 127 119 106 95 87 78 68 60 58 61 73 80 83 83 78 71 64 57 47 45 45 52 46 49 48 43 50
206 201 191 182 172 164 160 154 153 157 159 158 156 155 149 139 132 124 113 103 95 85 74 63 56 57 71 84 87 88 79 72 61 56 56 52 26 51 69 59 46 34 32
200 189 173 161 155 157 155 151 157 161 162 164 164 160 155 149 142 134 125 114 105 93 83 74 64 57 52 82 93 94 79 67 50 34 36 44 17 30 60 69 48 26 5
145 143 137 136 150 156 153 156 164 168 173 169 164 159 156 153 150 144 130 117 117 117 108 90 67 50 12 57 99 107 99 77 46 22 10 11 11 15 48 98 70 6 327
119 128 136 147 158 156 156 165 171 181 171 157 156 157 155 155 152 144 135 135 130 128 128 116 22 344 334 358 46 124 137 138 105 27 348 330 346 355 0 32 180 279 285
123 134 142 150 155 160 165 174 185 173 156 155 160 162 160 163 160 154 152 153 152 162 183 223 270 273 294 313 308 296 167 160 163 238 269 292 324 342 350 357 322 352 67
146 149 153 158 167 175 179 186 182 161 160 164 171 173 171 173 168 170 172 171 176 187 207 218 244 259 256 282 292 298 302 284 189 236 277 306 331 352 353 332 344 29 50
166 163 166 180 190 190 194 191 170 166 168 177 180 181 183 184 182 184 186 186 190 199 211 217 231 243 252 254 255 265 292 296 289 281 301 323 340 354 332 336 358 355 276
182 181 191 202 203 192 197 189 176 173 180 185 187 189 193 193 193 198 204 202 205 200 203 211 210 212 235 242 229 216 219 218 233 230 185 274 312 314 309 300 294 290 300
190 199 210 216 211 198 200 193 184 182 186 191 195 195 195 196 196 200 222 234 225 233 233 224 213 223 233 247 249 251 256 260 258 227 189 240 249 258 265 273 278 273 266